Location: Biltmore Gardens
(41.6070°N, 83.4666°W)
Time: 15:28:30
(UTC+00:00)

Vanguard 1 Rocket - Visible Passes

Search period start: 11 April 2021 00:00
Search period end: 21 April 2021 00:00
Orbit: 653 x 4223 km, 34.3° (Epoch: 10 April)

Date Brightness Start Highest point End Pass type
(mag) Time Alt. Az. Time Alt. Az. Time Alt. Az.
11 Apr 9.5 02:30:40 10° WSW 02:37:26 31° SSW 02:40:33 27° S visible
12 Apr 9.0 01:20:04 10° WSW 01:25:52 36° SSW 01:33:14 16° SE visible
12 Apr 10.2 03:45:58 10° WSW 03:50:31 18° SW 03:50:31 18° SW visible
13 Apr 9.7 02:34:21 10° WSW 02:40:27 24° SSW 02:43:14 22° S visible
14 Apr 9.2 01:23:30 10° WSW 01:28:54 29° SSW 01:35:59 14° SE visible
14 Apr 10.5 03:51:22 10° SW 03:53:15 12° SW 03:53:15 12° SW visible
15 Apr 10.0 02:38:31 10° WSW 02:43:30 17° SSW 02:46:02 16° S visible
16 Apr 9.5 01:27:10 10° WSW 01:31:57 22° SSW 01:38:50 10° SSE visible
17 Apr 10.3 02:44:10 10° SW 02:46:34 11° SSW 02:48:57 10° S visible
18 Apr 9.8 01:31:19 10° SW 01:35:01 15° SSW 01:39:52 10° SSE visible
